DB0BGL Weather Reports


time (UTC)temp
C
wind
direction
speed
KPH
gust
KPH
rain 1hr
cm
rain 24hr
cm
rain mn
cm
humidity
%
barometer
mb
20260506215026 23 180 0.0 0.0 0.00 0.00 0.00 100
20260506213826 23 180 0.0 0.0 0.00 0.00 0.00 100
20260506212625 23 180 0.0 0.0 0.00 0.00 0.00 100
20260506211424 23 180 0.0 0.0 0.00 0.00 0.00 100
20260506210224 23 180 0.0 0.0 0.00 0.00 0.00 100
20260506204609 23 180 0.0 0.0 0.00 0.00 0.00 100
20260506203408 23 180 0.0 0.0 0.00 0.00 0.00 100
20260506131321 20 108 0.0 4.8 0.00 0.00 0.00 33
20260506130320 19 88 0.0 3.2 0.00 0.00 0.00 36
20260506130229 -17 180 0.0 0.0 0.00 0.00 0.00 100
20260506125320 16 95 0.0 8.0 0.00 0.00 0.00 42
20260506124319 16 126 3.2 12.9 0.00 0.00 0.00 42
20260506123319 15 122 0.0 8.0 0.00 0.00 0.00 47
20260506121214 -17 180 0.0 0.0 0.00 0.00 0.00 100
20260506120015 -17 180 0.0 0.0 0.00 0.00 0.00 100
20260506115009 -17 180 0.0 0.0 0.00 0.00 0.00 100
20260506114813 -17 180 0.0 0.0 0.00 0.00 0.00 100
20260506112411 -17 180 0.0 0.0 0.00 0.00 0.00 100
20260506110012 -17 180 0.0 0.0 0.00 0.00 0.00 100
20260506105018 -17 180 0.0 0.0 0.00 0.00 0.00 100
20260506104809 -17 180 0.0 0.0 0.00 0.00 0.00 100
20260506103609 -17 180 0.0 0.0 0.00 0.00 0.00 100
20260506102408 -17 180 0.0 0.0 0.00 0.00 0.00 100
20260506094806 -17 180 0.0 0.0 0.00 0.00 0.00 100
20260506092406 -17 180 0.0 0.0 0.00 0.00 0.00 100
20260506081457 12 104 0.0 14.5 0.00 0.00 0.00 55
20260506081454 12 104 0.0 14.5 0.00 0.00 0.00 55
20260506080454 13 78 0.0 8.0 0.00 0.00 0.00 63
20260506073452 12 102 0.0 3.2 0.00 0.00 0.00 64
20260506072451 12 132 4.8 8.0 0.00 0.00 0.00 66
20260506071451 13 119 0.0 8.0 0.00 0.00 0.00 61
20260506070450 15 105 0.0 6.4 0.00 0.00 0.00 58